Regional Weather Roundup
Issued by NWS

Home | Current Version | Previous Version | Graphics & Text | Print | Product List | Glossary On
Versions: 1 2 3 4 5 6 7 8 9 10 11 12 13 14 15 16 17 18 19 20 21 22 23 24 25 26 27 28 29 30 31 32 33 34 35 36 37 38 39 40 41 42 43 44 45 46 47 48 49 50
000
ASUS43 KOAX 280510
RWRNE

WEATHER ROUNDUP FOR NEBRASKA
NATIONAL WEATHER SERVICE OMAHA NE
1200 AM CDT TUE JUL 28 2015

NOTES: SATELLITE DATA IS BEING USED TO AUGMENT CLOUD COVER ABOVE
       12000 FEET.
       "FAIR" INDICATES FEW OR NO CLOUDS BELOW 12,000 FEET WITH NO
       SIGNIFICANT WEATHER AND/OR OBSTRUCTIONS TO VISIBILITY.

  * THESE STATIONS DO NOT REPORT WEATHER SUCH AS RAIN...SNOW OR FOG.

NEZ001>004-019>022-054>056-280600-
NEBRASKA PANHANDLE

CITY           SKY/WX    TMP DP  RH WIND       PRES   REMARKS
SCOTTSBLUFF    PTCLDY    69  61  75 NW7       29.83R
ALLIANCE       MOCLDY    71  57  61 N7        29.79R
CHADRON        MOCLDY    64  58  80 SW8       29.76R
KIMBALL        PTCLDY    70  50  50 NW14      29.89R
SIDNEY         MOCLDY    74  54  49 NW6       29.82S
$$

NEZ057>060-069>072-079>082-280600-
SOUTHWEST NEBRASKA

CITY           SKY/WX    TMP DP  RH WIND       PRES   REMARKS
NORTH PLATTE   CLEAR     82  67  60 SE12G22   29.71F
IMPERIAL       CLEAR     81  68  64 S15       29.74S
LEXINGTON      CLEAR     82  67  61 SE14      29.76S
MCCOOK         CLEAR     83  69  62 S20G26    29.73F
OGALLALA       PTCLDY    79  70  72 S15       29.71F
$$

NEZ005>010-023>029-035>040-094-280600-
NORTH CENTRAL NEBRASKA

CITY           SKY/WX    TMP DP  RH WIND       PRES   REMARKS
VALENTINE      PTCLDY    83  70  64 S22G30    29.67F
AINSWORTH      CLEAR     81  71  71 S21G30    29.71F
BROKEN BOW     CLEAR     79  70  74 SE10      29.74F
O`NEILL        CLEAR     80  73  80 SE15G22   29.74F
ORD            CLEAR     81  72  74 SE16G23   29.74F
THEDFORD       PTCLDY    81  70  68 W16G26    29.79R
$$

NEZ041-046>049-061>064-073>077-083>087-280600-
SOUTH CENTRAL NEBRASKA

CITY           SKY/WX    TMP DP  RH WIND       PRES   REMARKS
GRAND ISLAND   CLEAR     80  71  74 SE15G21   29.79F
AURORA         CLEAR     81  70  69 S14G20    29.80F
HASTINGS       CLEAR     80  65  59 SE13      29.80S
HEBRON         CLEAR     82  65  55 S14G21    29.81F
HOLDREGE       CLEAR     80  65  60 SE14      29.77F
KEARNEY *      CLEAR     81  64  57 SE15      29.77F
YORK           MOCLDY    81  72  74 S13       29.81F
$$

NEZ011>018-030>034-042>045-280600-
NORTHEAST NEBRASKA

CITY           SKY/WX    TMP DP  RH WIND       PRES   REMARKS
NORFOLK        MOCLDY    78  75  90 SE17G25   29.78F
ALBION         CLEAR     79  73  83 SE10G17   29.78F
BLAIR          PTCLDY    76  69  80 SE10      29.84F
COLUMBUS *     MOCLDY    79  73  83 SE6       29.80F
FREMONT        CLEAR     78  71  79 SE10      29.84R
TEKAMAH        PTCLDY    77  71  82 SE12      29.83S
WAYNE          PTCLDY    74  71  88 SE16      29.81F
$$

NEZ050>053-065>068-078-088>093-280600-
SOUTHEAST NEBRASKA

CITY           SKY/WX    TMP DP  RH WIND       PRES   REMARKS
LINCOLN        CLEAR     80  76  87 SE12      29.83S
OMAHA EPPLEY   MOCLDY    78  71  79 SE16      29.85S
BEATRICE       CLEAR     80  72  75 S14       29.84S
FALLS CITY     CLEAR     76  73  91 SE8       29.86F
NEBRASKA CITY  CLEAR     75  71  86 SE12      29.86F
PLATTSMOUTH    CLEAR     75  72  88 SE10      29.86S
$$

NEZ044-045-051>053-067-280600-
OMAHA AREA

CITY           SKY/WX    TMP DP  RH WIND       PRES   REMARKS
OMAHA EPPLEY   MOCLDY    78  71  79 SE16      29.85S
BLAIR          PTCLDY    76  69  80 SE10      29.84F
FREMONT        CLEAR     78  71  79 SE10      29.84R
MILLARD        CLEAR     77  72  83 SE12G17   29.84S
OFFUTT AFB     MOCLDY    76  71  84 SE14      29.84S
PLATTSMOUTH    CLEAR     75  72  88 SE10      29.86S
WAHOO          FAIR      76  73  91 SE10      29.83S
$$



USA.gov is the U.S. government's official web portal to all federal, state and local government web resources and services.